Home   Weather   Laval   Past weeks
Flag for Canada

Past Weather in Laval, Quebec, Canada — Yesterday and Last 2 Weeks

Now
55 °F

Passing clouds.


Feels Like: 55 °F
Forecast: 79 / 60 °F
Wind: No wind

Location: Montreal / Mirabel

Current Time: Jul 23, 2019 at 3:17:08 am

Latest Report: Jul 23, 2019 at 2:00 am


Visibility: 25 mi

Pressure: 29.84 "Hg

Humidity: 94%

Dew Point: 54 °F

Location of LavalLocation

Past Weather in Laval — Graph

°F

Laval Temperature Yesterday

Maximum temperature yesterday: 72 °F (at 3:00 pm)
Minimum temperature yesterday: 54 °F (at 5:00 am)
Average temperature yesterday: 65 °F

High & Low Weather Summary for the Past Weeks

 TemperatureHumidityPressure
High88 °F (Jul 19, 4:00 pm)100% (Jul 11, 9:41 am)30.06 "Hg (Jul 11, 9:41 am)
Low48 °F (Jul 8, 6:00 am)32% (Jul 8, 4:00 pm)29.62 "Hg (Jul 21, 2:00 am)
Average71 °F76%29.86 "Hg
* Reported Jul 8 1:00 am — Jul 23 1:00 am, Laval. Weather by CustomWeather, © 2019

Note: Actual official high and low records may vary slightly from our data, if they occured in-between our weather recording intervals... More about our weather records

Advertising

Laval Weather History for the Previous 24 Hours

Scroll right to see more
 ConditionsComfort  
Time TempWeatherWind HumidityBarometerVisibility
1:00 am
Tue, Jul 23
57 °FPartly cloudy.2 mph100%29.85 "Hg25 mi
12:00 am57 °FPartly cloudy.No wind100%29.86 "Hg25 mi
11:00 pm
Mon, Jul 22
59 °FPartly cloudy.2 mph94%29.86 "Hg25 mi
10:00 pm63 °FPassing clouds.3 mph77%29.87 "Hg25 mi
9:00 pm64 °FPartly cloudy.3 mph78%29.86 "Hg25 mi
8:00 pm64 °FBroken clouds.2 mph83%29.86 "Hg45 mi
7:00 pm72 °FBroken clouds.3 mph61%29.86 "Hg45 mi
6:00 pm72 °FBroken clouds.5 mph50%29.87 "Hg45 mi
5:00 pm70 °FBroken clouds.2 mph60%29.88 "Hg45 mi
4:00 pm72 °FBroken clouds.2 mph57%29.88 "Hg45 mi
3:00 pm72 °FBroken clouds.5 mph50%29.90 "Hg25 mi
2:00 pm70 °FMore clouds than sun.2 mph60%29.92 "Hg45 mi
1:00 pm68 °FCloudy.2 mph64%29.93 "Hg45 mi
12:00 pm68 °FMostly cloudy.5 mph56%29.94 "Hg45 mi
11:00 am66 °FPartly sunny.2 mph68%29.94 "Hg45 mi
10:00 am64 °FPartly sunny.No wind78%29.95 "Hg45 mi
9:00 am64 °FMore clouds than sun.2 mph73%29.93 "Hg45 mi
8:00 am63 °FOvercast.3 mph77%29.94 "Hg45 mi
7:00 am61 °FPartly sunny.No wind83%29.94 "Hg45 mi
6:00 am55 °FPartly sunny.No wind100%29.94 "Hg45 mi
5:00 am54 °FPassing clouds.5 mph100%29.94 "Hg25 mi
4:00 am57 °FPassing clouds.2 mph88%29.93 "Hg25 mi
3:00 am63 °FPassing clouds.5 mph77%29.91 "Hg25 mi
Weather by CustomWeather, © 2019

See weather overview